Theta_e
322 323 329 325 324 323 326 327 324 322 323 322 324 324 325 327 335 342 339 341 344 342 342 343 342 340 342 343 341 340 339 339 340 341 339 338 336 332 329 328 332 336 337 337 337 338 336 334 333
321 323 327 321 326 327 325 323 324 320 324 322 323 324 324 341 337 338 343 345 345 342 344 344 340 338 338 338 336 332 332 335 338 340 339 338 335 332 331 329 329 332 334 334 333 332 331 329 329
323 326 322 324 323 326 325 323 320 322 322 324 324 323 326 335 336 339 343 348 346 343 344 343 340 338 332 328 327 329 329 331 334 340 339 337 333 333 329 327 326 327 328 329 329 328 328 326 324
327 322 319 322 325 323 323 322 322 323 322 324 324 326 331 334 336 340 345 348 346 344 345 342 340 337 332 330 331 330 331 333 334 338 336 332 331 332 328 326 326 326 326 326 326 324 321 319 323
325 321 323 323 321 321 320 320 319 323 323 324 325 325 334 337 340 339 344 347 346 346 345 341 339 337 334 333 334 332 333 334 337 336 333 331 332 333 328 324 326 327 329 329 330 329 325 324 324
323 319 324 328 323 321 319 318 320 322 322 321 323 323 334 338 338 339 342 346 347 348 345 341 339 338 336 333 333 328 329 338 337 336 334 332 333 333 329 327 322 323 326 329 330 329 326 326 326
322 320 323 322 322 321 321 319 319 321 322 321 321 323 332 334 338 338 340 345 348 348 344 341 339 339 337 334 333 329 324 336 336 333 332 331 334 334 333 330 327 325 326 328 326 326 327 326 326
319 322 326 322 323 321 319 319 320 319 320 321 322 322 338 337 339 338 338 347 348 348 345 342 341 339 338 335 334 331 325 328 333 333 332 333 333 333 335 333 330 326 324 328 326 326 326 326 327
320 323 325 326 325 323 320 320 321 321 321 320 321 324 329 338 339 339 338 344 347 347 344 342 341 340 339 337 336 333 329 326 330 331 330 330 331 333 332 333 331 325 325 325 325 326 326 328 325
321 325 326 323 322 321 322 322 320 321 321 321 321 325 330 338 338 337 338 338 341 345 345 342 341 340 341 338 337 335 331 327 327 329 328 330 329 333 331 332 330 325 327 325 326 327 327 327 326
321 325 324 325 322 322 324 323 322 321 322 319 320 320 324 330 335 336 338 339 339 341 345 344 343 342 342 341 339 337 333 331 326 325 328 328 331 333 334 333 331 324 325 326 327 327 324 322 320
321 321 322 323 321 323 325 323 324 322 320 318 319 320 322 323 326 333 335 338 339 340 341 343 345 342 342 342 340 338 336 333 330 326 322 328 330 332 333 328 326 325 325 328 328 326 322 318 316
320 320 320 320 319 320 320 322 322 321 319 317 317 318 321 321 322 326 331 334 338 339 340 340 341 343 343 342 341 339 338 334 334 332 327 325 330 330 330 327 327 328 328 328 326 321 319 316 315
318 319 320 319 319 319 320 319 319 319 317 316 315 316 316 318 320 323 324 325 329 337 339 339 340 341 343 342 341 339 338 336 335 335 329 328 329 329 325 327 328 328 328 324 322 320 317 315 311
320 321 320 319 319 319 319 320 319 317 317 317 317 315 315 315 318 320 324 324 325 326 338 339 340 340 340 341 340 339 339 336 336 336 330 328 328 326 325 327 328 327 324 324 321 319 316 312 306
321 321 323 320 320 319 319 321 318 316 316 317 317 317 314 315 315 318 320 321 323 324 326 339 339 340 341 340 340 340 340 338 337 334 332 328 327 326 328 328 328 326 323 321 319 316 311 306 305
321 321 321 321 318 320 319 320 318 316 316 314 315 316 316 316 315 317 319 320 321 321 323 335 339 339 341 342 341 341 339 338 337 335 332 329 329 329 329 329 328 325 320 316 316 311 307 305 303
322 321 319 319 318 318 318 317 316 315 314 313 312 313 312 314 315 316 318 319 319 320 320 323 336 338 339 341 341 341 340 338 337 336 333 331 331 331 330 329 327 324 318 314 312 308 304 303 302
320 319 317 315 316 315 316 316 314 314 313 314 314 311 313 315 315 317 318 318 318 319 320 321 325 336 338 339 340 340 340 339 337 335 334 333 331 332 331 328 324 319 317 314 310 304 303 301 300
319 316 316 315 314 313 312 313 312 312 312 312 313 311 312 313 311 312 316 317 318 319 320 320 322 328 337 338 338 339 339 338 338 336 334 334 332 332 332 325 320 316 313 309 305 304 302 300 298
315 316 316 315 312 310 311 313 311 311 310 311 312 311 311 311 311 311 310 314 316 316 319 320 321 322 325 331 333 335 337 337 336 335 335 334 333 332 330 322 318 314 313 308 304 303 303 300 297
317 313 314 314 313 313 310 315 310 311 310 310 308 308 310 309 308 308 308 309 313 314 316 318 320 320 322 323 324 329 334 333 335 334 333 332 331 328 324 318 313 311 308 304 303 302 302 301 298
315 313 313 313 312 311 311 312 310 309 312 310 309 306 306 308 308 309 308 310 312 313 313 314 318 319 320 323 324 326 332 333 332 329 329 327 324 323 319 313 309 307 305 302 301 300 299 299 298
312 312 312 312 310 311 311 312 309 310 311 311 310 310 309 307 307 308 308 310 311 312 313 313 314 317 318 320 325 327 330 329 324 319 317 316 316 316 310 307 307 305 302 302 300 298 297 296 296
314 312 306 318 317 311 311 313 311 310 310 309 308 308 309 307 308 308 309 308 311 312 313 312 313 314 315 320 327 329 329 329 327 319 313 311 309 307 305 306 303 302 301 298 298 297 296 295 294
313 312 308 316 315 313 310 314 311 308 310 307 308 308 307 307 305 307 310 307 310 313 314 315 312 314 315 324 328 329 327 323 320 316 313 310 307 305 304 303 301 299 298 297 296 295 295 294 293
313 313 310 313 308 302 308 306 306 307 309 307 307 306 305 305 305 308 309 310 312 313 313 314 315 314 319 328 326 325 323 324 321 315 312 310 306 304 302 301 299 298 297 296 295 295 294 292 292
309 309 309 304 303 311 310 309 310 310 311 309 308 307 306 306 308 308 310 311 313 313 313 315 315 315 326 326 324 319 319 321 316 312 308 307 302 299 299 298 299 296 295 294 294 293 292 291 291
312 315 312 310 309 309 314 312 307 309 311 309 308 309 309 308 306 305 310 311 312 313 314 316 314 318 324 322 316 317 315 313 310 308 305 302 299 298 298 297 295 294 293 293 292 292 291 291 290
310 311 309 304 307 309 306 313 309 309 308 310 311 312 309 305 306 310 311 311 312 312 316 318 316 321 317 316 315 311 308 307 305 303 300 298 297 297 297 295 293 293 292 292 292 290 290 290 290
Wind_Speed
10 8 12 2 3 4 4 7 3 7 3 1 3 5 3 2 1 2 4 19 24 31 27 25 23 20 20 18 17 16 16 15 14 15 15 14 13 13 12 11 12 12 14 17 17 16 14 13 11
8 8 3 1 4 1 5 9 12 7 3 4 6 4 4 2 3 7 12 26 28 32 29 26 23 20 20 18 17 16 15 14 15 14 15 16 13 12 12 12 12 12 12 13 13 12 11 9 8
7 2 2 4 4 6 5 4 9 4 6 4 4 1 1 2 4 13 20 30 27 30 27 27 23 20 21 20 18 16 15 15 15 17 19 15 13 13 11 12 12 12 11 11 10 8 6 5 6
1 3 3 2 8 8 11 7 6 2 4 5 3 3 4 4 16 14 32 31 27 30 28 27 23 20 20 19 18 15 15 16 17 19 17 16 16 15 13 13 13 13 13 12 10 8 7 6 7
3 1 2 4 9 7 8 6 8 3 3 2 0 2 4 5 21 28 32 29 31 30 27 27 23 21 20 18 16 15 16 17 20 18 18 17 17 15 13 13 13 13 13 12 11 9 8 8 6
0 3 2 9 6 6 10 9 5 3 3 2 2 3 2 20 22 26 28 29 32 32 29 27 23 21 19 19 17 16 17 18 21 20 16 17 16 15 12 12 12 11 11 10 9 8 7 7 6
5 3 6 4 5 6 11 8 7 8 4 4 2 3 0 3 18 21 23 26 30 32 30 27 24 21 19 19 17 17 18 21 21 19 17 18 14 13 11 10 10 10 9 8 7 8 7 7 7
4 4 4 6 8 7 8 4 5 7 7 2 2 3 4 6 20 18 18 29 29 29 26 26 25 23 22 20 18 17 18 20 21 20 19 18 15 12 13 11 10 9 8 7 7 8 8 7 7
2 2 5 7 7 5 12 4 4 2 4 3 3 4 8 18 16 14 19 28 28 27 25 26 26 24 22 21 19 18 17 19 20 19 18 16 13 10 15 16 12 9 8 7 7 7 7 8 9
5 6 6 4 7 5 5 4 6 2 3 1 4 4 13 18 16 15 13 16 25 27 27 27 28 27 24 22 21 20 18 19 20 19 20 15 14 10 13 18 13 9 8 8 7 8 7 5 6
5 5 5 12 11 1 4 6 4 4 1 6 5 7 5 12 17 16 18 21 23 26 26 31 30 28 27 26 24 22 20 19 19 20 20 18 16 15 14 15 12 10 9 10 11 10 7 6 6
5 5 12 11 12 4 3 5 6 1 4 8 5 3 4 8 8 13 18 26 27 28 29 29 32 31 30 28 28 25 22 19 20 20 20 22 16 22 17 11 12 11 11 11 11 10 7 7 5
6 6 10 9 8 4 4 4 4 7 8 11 11 5 4 6 7 11 18 22 30 32 33 32 29 32 33 32 30 27 24 20 21 21 19 23 22 23 16 15 15 12 12 12 13 12 9 7 4
5 3 3 5 7 5 6 6 2 3 6 11 10 13 6 7 10 14 13 15 20 31 36 35 33 31 35 35 32 29 26 24 25 26 24 22 22 21 18 20 18 14 18 17 14 12 10 7 5
3 2 6 6 5 5 7 7 8 10 9 12 14 12 13 10 17 16 23 21 17 18 35 39 36 34 33 34 32 29 26 26 29 29 27 25 23 21 22 21 20 21 18 16 15 13 10 7 4
3 3 1 7 10 9 9 13 5 11 8 14 19 17 14 16 12 26 31 29 27 23 20 39 40 37 37 33 30 31 28 31 32 32 29 26 24 24 24 24 23 20 18 16 15 12 10 7 4
1 3 6 7 8 6 12 3 14 9 14 10 14 15 16 19 15 26 30 35 37 34 29 36 39 40 39 38 35 30 32 30 37 30 30 29 27 28 28 26 24 20 20 17 14 13 10 7 3
5 4 3 6 5 5 6 8 8 10 8 11 10 9 10 13 17 29 33 33 34 38 36 31 39 42 43 41 37 36 31 30 33 34 32 31 30 30 28 25 23 22 21 18 15 12 9 6 2
5 4 3 5 6 3 8 10 10 11 10 16 15 11 14 15 12 20 21 22 32 38 33 37 30 40 38 32 31 31 32 33 35 36 34 33 35 33 29 27 25 24 22 19 17 14 10 5 1
6 4 5 7 4 5 12 20 17 18 18 17 22 14 16 16 9 10 21 25 21 25 24 24 27 34 44 40 37 30 33 35 36 35 33 36 39 37 31 29 28 26 23 21 19 17 12 5 3
2 2 3 5 7 5 9 10 8 7 14 18 19 19 15 15 13 11 11 21 24 23 26 28 22 20 33 41 39 27 32 29 27 30 34 38 39 36 32 31 30 27 25 24 21 17 14 9 4
1 4 2 3 4 3 6 7 6 9 9 6 11 12 15 14 10 8 9 13 25 28 33 29 31 27 23 35 39 35 33 23 24 37 38 39 37 34 32 31 29 26 24 23 20 16 13 11 9
3 5 5 4 4 5 3 3 8 7 5 8 6 10 10 13 12 13 12 21 29 31 29 22 31 37 34 33 42 41 31 35 32 35 38 38 36 32 30 30 28 26 24 21 20 17 14 12 12
6 5 4 3 3 3 8 7 5 3 4 1 1 4 7 8 8 7 9 13 15 15 17 23 23 25 34 34 42 40 39 35 36 36 36 35 33 32 32 30 27 25 23 21 19 16 13 11 9
5 5 3 0 2 6 2 4 7 9 11 9 8 8 6 7 2 2 4 2 1 5 10 16 18 23 23 32 38 41 44 43 44 42 37 36 34 32 33 30 27 24 23 21 18 16 14 11 9
4 5 4 4 3 4 5 7 6 11 13 8 6 3 4 5 5 6 2 4 7 9 11 18 22 22 23 29 37 40 40 39 37 39 37 33 31 33 34 31 26 25 22 19 17 14 12 9 7
3 3 5 1 2 3 5 7 9 7 8 8 7 6 8 9 7 3 6 4 6 10 13 19 23 25 22 31 35 37 37 35 34 34 32 32 30 32 33 31 28 24 22 20 16 14 11 7 5
5 5 2 2 2 5 6 5 8 4 5 8 9 9 9 9 2 5 2 2 5 13 18 22 23 25 24 32 34 34 33 32 31 30 31 32 30 30 34 30 25 23 20 17 14 13 11 8 5
3 3 3 2 4 4 4 5 5 6 1 4 4 4 6 11 8 6 2 1 6 12 16 23 18 23 25 30 27 31 29 28 29 30 30 30 30 32 31 28 26 23 20 15 12 9 8 6 4
5 5 5 4 4 4 3 6 9 12 6 14 18 19 9 9 6 2 2 3 8 12 18 19 15 21 28 31 32 32 31 30 29 30 30 31 32 32 29 28 25 20 17 13 11 9 7 4 2
Wind_Direction
274 283 313 306 53 72 248 254 244 291 37 339 345 81 164 236 119 204 162 171 150 154 154 150 148 144 142 142 143 144 144 143 143 138 135 128 120 111 103 109 113 106 97 98 108 109 113 107 101
271 296 317 85 116 152 264 245 273 258 175 54 28 7 35 89 92 137 110 158 154 155 156 156 153 147 143 144 145 146 146 147 147 149 145 136 125 117 114 116 122 122 114 108 110 111 108 101 94
251 268 85 152 175 200 232 213 335 199 92 95 19 358 55 94 83 144 151 153 152 155 160 158 154 151 147 148 147 148 150 150 149 152 140 137 132 126 119 117 122 126 132 129 124 121 122 109 99
213 16 350 146 226 242 230 267 288 72 48 71 118 296 39 316 151 155 150 155 151 158 165 160 158 157 152 151 148 147 148 149 151 146 144 141 139 133 123 120 117 121 121 121 124 124 120 124 119
235 66 201 219 245 257 250 238 281 152 129 158 66 314 102 38 133 144 150 159 155 162 164 164 164 161 157 155 150 148 148 152 153 151 147 145 143 137 126 122 121 119 117 114 111 112 115 115 120
337 128 156 227 240 247 267 238 213 198 130 317 122 77 168 141 140 149 154 161 164 163 164 167 168 165 162 161 156 151 151 150 155 155 154 153 150 145 135 125 123 120 119 116 117 118 117 114 111
163 119 216 220 233 262 251 272 182 184 180 262 263 115 80 78 149 154 155 162 166 165 165 168 169 169 168 167 161 156 155 159 158 160 160 161 162 161 155 141 133 131 131 125 122 123 120 115 107
142 148 216 225 238 269 268 306 245 151 204 146 96 162 166 178 158 160 160 158 159 164 170 173 172 173 172 171 168 163 160 163 168 168 168 171 175 180 184 173 154 148 145 136 132 130 121 110 99
150 184 212 219 234 252 299 346 310 151 116 90 43 128 165 153 162 169 158 150 157 168 171 177 177 178 177 175 173 171 168 167 171 179 182 178 175 183 195 189 174 162 155 146 138 129 124 122 106
171 200 230 222 238 271 278 38 307 139 148 11 68 44 139 152 156 154 169 162 159 171 176 179 184 183 183 184 181 179 176 177 180 183 180 181 175 171 169 181 180 175 164 149 140 134 129 132 129
196 190 223 271 265 318 302 316 336 11 70 224 207 169 251 170 171 174 183 187 184 179 184 187 186 185 186 188 189 186 185 185 187 192 190 185 184 189 174 176 183 185 176 158 143 147 139 123 128
240 220 237 259 273 274 276 311 330 92 264 317 251 243 139 233 187 188 193 199 196 191 192 193 193 188 191 191 191 191 189 192 194 194 191 191 193 188 182 188 192 186 181 173 169 160 149 151 159
220 246 246 252 289 259 282 273 255 283 301 304 310 343 288 264 227 217 214 213 208 197 197 195 195 194 192 197 194 193 191 192 196 192 189 192 187 185 200 195 182 185 185 188 169 163 164 175 198
202 199 281 296 311 321 264 254 229 282 293 302 303 290 231 253 256 261 244 243 226 205 200 197 194 196 197 201 195 195 198 201 203 202 192 191 193 193 195 196 194 193 176 169 168 170 178 200 196
107 44 336 305 290 261 345 273 230 241 251 259 271 276 278 226 249 250 258 253 250 220 207 198 195 197 195 199 198 198 202 202 202 204 191 193 202 201 195 191 180 175 173 180 182 186 197 201 199
79 60 329 247 238 238 168 255 241 241 230 244 251 251 260 268 235 245 254 259 259 254 219 203 197 196 199 194 201 201 203 204 197 192 191 194 199 195 190 189 189 184 185 192 193 189 183 190 201
230 224 222 297 246 209 185 239 239 244 243 251 245 241 244 250 257 252 248 247 250 253 249 209 201 199 200 204 203 206 205 206 198 196 191 191 198 197 198 197 197 192 191 193 194 186 188 184 197
195 226 246 239 288 201 232 250 261 274 253 261 245 237 237 237 242 240 239 241 243 243 250 245 209 203 202 203 204 207 204 209 199 194 196 195 199 197 197 199 200 190 189 190 186 186 178 175 196
269 303 279 274 296 280 249 261 255 259 256 264 262 242 249 248 247 248 249 249 244 239 243 241 231 206 196 191 192 198 205 207 199 194 195 200 201 204 202 201 195 192 192 190 184 173 166 143 167
267 267 293 294 341 5 313 295 283 260 256 241 249 242 243 246 250 259 259 261 256 245 240 247 237 209 203 200 198 198 198 200 208 200 204 204 204 202 203 201 195 193 187 185 184 181 165 151 131
348 306 288 270 334 350 349 293 266 278 248 247 246 244 239 234 238 241 242 248 258 259 255 245 243 230 206 197 197 190 191 192 190 194 197 196 198 200 201 197 198 194 194 187 185 186 182 156 136
101 6 72 30 45 260 69 292 291 275 279 252 237 231 234 230 228 222 230 241 248 256 256 258 248 240 232 215 207 195 181 174 191 190 188 185 194 192 191 192 197 194 191 188 183 183 185 173 163
168 93 66 38 26 6 277 221 279 259 274 267 278 249 233 231 228 237 231 232 243 246 242 251 252 245 237 224 216 204 185 187 188 182 179 182 187 189 189 190 193 193 187 184 179 174 175 177 167
124 65 45 61 75 295 228 182 281 240 210 122 275 31 226 234 217 215 235 242 246 254 250 250 242 251 245 229 212 197 191 182 174 175 175 177 178 182 184 185 191 189 182 182 178 168 166 166 160
89 78 9 248 223 235 103 211 250 275 284 267 285 263 212 162 31 272 145 122 66 358 315 276 258 245 247 237 207 198 198 192 184 181 177 177 178 178 179 182 185 183 183 178 174 167 163 161 165
161 140 158 221 228 283 295 226 254 234 264 298 237 314 308 259 223 202 156 56 37 20 353 343 277 248 240 223 200 195 194 186 183 185 186 182 177 179 179 178 181 177 175 173 172 161 157 162 170
190 187 170 322 314 43 252 294 307 335 41 47 46 22 346 330 280 227 103 81 14 347 322 306 304 250 229 196 182 183 185 184 187 191 193 190 184 179 175 177 175 173 172 170 169 159 156 163 173
146 158 85 8 299 278 282 266 240 351 349 15 12 4 348 350 33 146 169 73 354 329 318 309 290 237 199 180 178 173 171 178 183 184 183 183 175 166 170 170 169 168 167 165 166 157 159 164 173
176 182 212 106 175 216 290 263 241 195 108 30 329 290 305 297 276 300 249 317 339 324 310 309 275 219 175 162 160 161 165 172 173 175 175 167 162 167 168 164 162 161 162 159 160 162 158 158 167
173 190 189 142 255 245 192 261 276 279 37 333 321 318 283 262 252 267 224 346 332 316 319 302 228 160 150 154 158 161 162 163 163 161 159 161 158 164 163 159 157 156 154 152 158 172 162 171 180